User: anonymous   Login
Location: Goodsell Observatory
(44.4617°N, 93.1522°W)
Time: 07:19:03
(UTC-06:00)
Language:

Hubble Space Telescope - Orbit

View from above orbital plane
View from above orbital plane
View from above satellite
View from above satellite

Ground track
Ground track

The orbit data is extracted from the following two-line orbital elements,

1 20580U 90037B   17326.64489681  .00000721  00000-0  33399-4 0  9990
2 20580  28.4706  40.3523 0002980  78.2250  75.3170 15.08925989314247
Epoch (UTC): 22 November 2017 15:28:39
Eccentricity: 0.0002980
inclination: 28.4706°
perigee height: 537 km
apogee height: 541 km
right ascension of ascending node: 40.3523°
argument of perigee: 78.2250°
revolutions per day: 15.08925989
mean anomaly at epoch: 75.3170°
orbit number at epoch: 31424

The dashed part of the orbit path shows where the satellite is in the earth's shadow,  

DLR